Time,TemperatureF,DewpointF,PressureIn,WindDirection,WindDirectionDegrees,WindSpeedMPH,WindSpeedGustMPH,Humidity,HourlyPrecipIn,Conditions,Clouds,dailyrainin,SolarRadiationWatts/m^2,SoftwareType,DateUTC
2013-03-15 00:00:00,40.5,21.9,30.15,NNW,348,0.0,0.0,47,0.00,,---,0.00,0.00,VWS V14.01,2013-03-15 04:00:00,
2013-03-15 00:05:00,40.1,22.0,30.16,NNW,348,0.0,0.0,48,0.00,,---,0.00,0.00,VWS V14.01,2013-03-15 04:05:00,
2013-03-15 00:10:00,39.8,21.7,30.16,NNW,348,0.0,1.0,48,0.00,,---,0.00,0.00,VWS V14.01,2013-03-15 04:10:00,
2013-03-15 00:15:00,39.5,21.5,30.16,NNW,348,0.0,1.0,48,0.00,,---,0.00,0.00,VWS V14.01,2013-03-15 04:15:00,
2013-03-15 00:20:00,39.2,20.7,30.16,NNW,346,0.0,2.0,47,0.00,,---,0.00,0.00,VWS V14.01,2013-03-15 04:20:00,
2013-03-15 00:25:00,39.0,20.5,30.16,NNW,346,0.0,2.0,47,0.00,,---,0.00,0.00,VWS V14.01,2013-03-15 04:25:00,
2013-03-15 00:30:00,38.8,21.3,30.16,NNW,346,0.0,0.0,49,0.00,,---,0.00,0.00,VWS V14.01,2013-03-15 04:30:00,
2013-03-15 00:35:00,38.7,21.7,30.16,NNW,346,0.0,0.0,50,0.00,,---,0.00,0.00,VWS V14.01,2013-03-15 04:35:00,
2013-03-15 00:40:00,38.6,20.1,30.17,NNW,341,4.0,4.0,47,0.00,,---,0.00,0.00,VWS V14.01,2013-03-15 04:40:00,
2013-03-15 00:45:00,38.7,19.2,30.17,North,355,0.0,5.0,45,0.00,,---,0.00,0.00,VWS V14.01,2013-03-15 04:45:00,
2013-03-15 00:50:00,38.8,20.3,30.17,North,355,0.0,5.0,47,0.00,,---,0.00,0.00,VWS V14.01,2013-03-15 04:50:00,
2013-03-15 00:55:00,38.9,19.4,30.17,North,355,0.0,5.0,45,0.00,,---,0.00,0.00,VWS V14.01,2013-03-15 04:55:00,
2013-03-15 01:00:00,39.0,19.5,30.17,NNW,338,1.0,1.0,45,0.00,,---,0.00,0.00,VWS V14.01,2013-03-15 05:00:00,
2013-03-15 01:05:00,39.1,19.0,30.17,WSW,244,0.0,2.0,44,0.00,,---,0.00,0.00,VWS V14.01,2013-03-15 05:05:00,
2013-03-15 01:10:00,39.3,19.2,30.17,West,270,3.0,4.0,44,0.00,,---,0.00,0.00,VWS V14.01,2013-03-15 05:10:00,
2013-03-15 01:15:00,39.5,19.4,30.17,WNW,295,0.0,4.0,44,0.00,,---,0.00,0.00,VWS V14.01,2013-03-15 05:15:00,
2013-03-15 01:20:00,39.6,19.0,30.17,NNE,15,1.0,4.0,43,0.00,,---,0.00,0.00,VWS V14.01,2013-03-15 05:20:00,
2013-03-15 01:25:00,39.8,18.6,30.17,WNW,290,2.0,4.0,42,0.00,,---,0.00,0.00,VWS V14.01,2013-03-15 05:25:00,
2013-03-15 01:30:00,39.9,18.7,30.17,WNW,292,0.0,0.0,42,0.00,,---,0.00,0.00,VWS V14.01,2013-03-15 05:30:00,
2013-03-15 01:35:00,40.0,18.8,30.17,WNW,292,0.0,1.0,42,0.00,,---,0.00,0.00,VWS V14.01,2013-03-15 05:35:00,
2013-03-15 01:40:00,40.0,18.8,30.17,WNW,292,0.0,2.0,42,0.00,,---,0.00,0.00,VWS V14.01,2013-03-15 05:40:00,
2013-03-15 01:45:00,40.0,18.8,30.17,West,269,0.0,4.0,42,0.00,,---,0.00,0.00,VWS V14.01,2013-03-15 05:45:00,
2013-03-15 01:50:00,40.0,18.8,30.17,West,272,0.0,4.0,42,0.00,,---,0.00,0.00,VWS V14.01,2013-03-15 05:50:00,
2013-03-15 01:55:00,40.0,18.8,30.17,West,272,0.0,4.0,42,0.00,,---,0.00,0.00,VWS V14.01,2013-03-15 05:55:00,
2013-03-15 02:00:00,39.8,20.7,30.17,West,277,0.0,0.0,46,0.00,,---,0.00,0.00,VWS V14.01,2013-03-15 06:00:00,
2013-03-15 02:05:00,39.7,19.6,30.17,West,277,1.0,1.0,44,0.00,,---,0.00,0.00,VWS V14.01,2013-03-15 06:05:00,
2013-03-15 02:10:00,39.6,19.5,30.17,WSW,254,0.0,2.0,44,0.00,,---,0.00,0.00,VWS V14.01,2013-03-15 06:10:00,
2013-03-15 02:15:00,39.5,19.4,30.17,West,261,0.0,2.0,44,0.00,,---,0.00,0.00,VWS V14.01,2013-03-15 06:15:00,
2013-03-15 02:20:00,39.3,19.2,30.16,West,261,0.0,2.0,44,0.00,,---,0.00,0.00,VWS V14.01,2013-03-15 06:20:00,
2013-03-15 02:25:00,39.2,19.1,30.16,West,261,0.0,2.0,44,0.00,,---,0.00,0.00,VWS V14.01,2013-03-15 06:25:00,
2013-03-15 02:30:00,39.2,21.7,30.16,West,261,0.0,0.0,49,0.00,,---,0.00,0.00,VWS V14.01,2013-03-15 06:30:00,
2013-03-15 02:35:00,38.9,25.4,30.16,West,261,0.0,1.0,58,0.00,,---,0.00,0.00,VWS V14.01,2013-03-15 06:35:00,
2013-03-15 02:40:00,38.5,22.9,30.16,West,261,0.0,1.0,53,0.00,,---,0.00,0.00,VWS V14.01,2013-03-15 06:40:00,
2013-03-15 02:45:00,38.3,21.8,30.16,West,261,0.0,1.0,51,0.00,,---,0.00,0.00,VWS V14.01,2013-03-15 06:45:00,
2013-03-15 02:50:00,38.0,22.0,30.16,West,261,0.0,1.0,52,0.00,,---,0.00,0.00,VWS V14.01,2013-03-15 06:50:00,
2013-03-15 02:55:00,37.6,20.7,30.16,WNW,298,0.0,5.0,50,0.00,,---,0.00,0.00,VWS V14.01,2013-03-15 06:55:00,
2013-03-15 03:00:00,37.5,21.0,30.16,WNW,298,0.0,0.0,51,0.00,,---,0.00,0.00,VWS V14.01,2013-03-15 07:00:00,
2013-03-15 03:05:00,37.3,21.3,30.16,WNW,298,0.0,0.0,52,0.00,,---,0.00,0.00,VWS V14.01,2013-03-15 07:05:00,
2013-03-15 03:10:00,37.1,22.0,30.16,WNW,298,0.0,0.0,54,0.00,,---,0.00,0.00,VWS V14.01,2013-03-15 07:10:00,
2013-03-15 03:15:00,36.8,23.0,30.16,WNW,298,0.0,0.0,57,0.00,,---,0.00,0.00,VWS V14.01,2013-03-15 07:15:00,
2013-03-15 03:20:00,36.5,25.1,30.15,WNW,298,0.0,0.0,63,0.00,,---,0.00,0.00,VWS V14.01,2013-03-15 07:20:00,
2013-03-15 03:25:00,36.1,24.0,30.15,WNW,298,0.0,0.0,61,0.00,,---,0.00,0.00,VWS V14.01,2013-03-15 07:25:00,
2013-03-15 03:30:00,35.8,23.3,30.15,WNW,298,0.0,0.0,60,0.00,,---,0.00,0.00,VWS V14.01,2013-03-15 07:30:00,
2013-03-15 03:35:00,35.4,22.9,30.15,WNW,298,0.0,0.0,60,0.00,,---,0.00,0.00,VWS V14.01,2013-03-15 07:35:00,
2013-03-15 03:40:00,35.0,22.9,30.15,WNW,298,0.0,0.0,61,0.00,,---,0.00,0.00,VWS V14.01,2013-03-15 07:40:00,
2013-03-15 03:45:00,34.6,22.9,30.15,WNW,298,0.0,0.0,62,0.00,,---,0.00,0.00,VWS V14.01,2013-03-15 07:45:00,
2013-03-15 03:50:00,34.2,22.9,30.15,WNW,298,0.0,0.0,63,0.00,,---,0.00,0.00,VWS V14.01,2013-03-15 07:50:00,
2013-03-15 03:55:00,33.9,23.0,30.15,WNW,298,0.0,0.0,64,0.00,,---,0.00,0.00,VWS V14.01,2013-03-15 07:55:00,
2013-03-15 04:00:00,33.5,23.0,30.14,WNW,298,0.0,0.0,65,0.00,,---,0.00,0.00,VWS V14.01,2013-03-15 08:00:00,
2013-03-15 04:05:00,33.2,23.1,30.14,WNW,298,0.0,1.0,66,0.00,,---,0.00,0.00,VWS V14.01,2013-03-15 08:05:00,
2013-03-15 04:10:00,32.9,22.8,30.14,WNW,298,0.0,1.0,66,0.00,,---,0.00,0.00,VWS V14.01,2013-03-15 08:10:00,
2013-03-15 04:15:00,32.6,22.9,30.14,WNW,298,0.0,1.0,67,0.00,,---,0.00,0.00,VWS V14.01,2013-03-15 08:15:00,
2013-03-15 04:20:00,32.4,22.7,30.14,WNW,298,0.0,1.0,67,0.00,,---,0.00,0.00,VWS V14.01,2013-03-15 08:20:00,
2013-03-15 04:25:00,32.1,22.4,30.14,WNW,298,0.0,1.0,67,0.00,,---,0.00,0.00,VWS V14.01,2013-03-15 08:25:00,
2013-03-15 04:30:00,32.0,22.6,30.14,WNW,298,0.0,0.0,68,0.00,,---,0.00,0.00,VWS V14.01,2013-03-15 08:30:00,
2013-03-15 04:35:00,31.8,22.1,30.14,WNW,298,0.0,0.0,67,0.00,,---,0.00,0.00,VWS V14.01,2013-03-15 08:35:00,
2013-03-15 04:40:00,31.6,22.3,30.14,WNW,298,0.0,0.0,68,0.00,,---,0.00,0.00,VWS V14.01,2013-03-15 08:40:00,
2013-03-15 04:45:00,31.5,22.9,30.14,WNW,298,0.0,0.0,70,0.00,,---,0.00,0.00,VWS V14.01,2013-03-15 08:45:00,
2013-03-15 04:50:00,31.3,22.7,30.15,WNW,298,0.0,0.0,70,0.00,,---,0.00,0.00,VWS V14.01,2013-03-15 08:50:00,
2013-03-15 04:55:00,31.1,22.5,30.15,WNW,298,0.0,0.0,70,0.00,,---,0.00,0.00,VWS V14.01,2013-03-15 08:55:00,
2013-03-15 05:00:00,31.0,22.4,30.15,WNW,298,0.0,0.0,70,0.00,,---,0.00,0.00,VWS V14.01,2013-03-15 09:00:00,
2013-03-15 05:05:00,30.8,22.5,30.15,WNW,298,0.0,1.0,71,0.00,,---,0.00,0.00,VWS V14.01,2013-03-15 09:05:00,
2013-03-15 05:10:00,30.7,22.8,30.15,WNW,298,0.0,1.0,72,0.00,,---,0.00,0.00,VWS V14.01,2013-03-15 09:10:00,
2013-03-15 05:15:00,30.5,22.6,30.15,WNW,298,0.0,1.0,72,0.00,,---,0.00,0.00,VWS V14.01,2013-03-15 09:15:00,
2013-03-15 05:20:00,30.3,22.7,30.15,WNW,298,0.0,1.0,73,0.00,,---,0.00,0.00,VWS V14.01,2013-03-15 09:20:00,
2013-03-15 05:25:00,30.1,22.5,30.15,WNW,298,0.0,1.0,73,0.00,,---,0.00,0.00,VWS V14.01,2013-03-15 09:25:00,
2013-03-15 05:30:00,30.0,22.1,30.15,WNW,298,0.0,0.0,72,0.00,,---,0.00,0.00,VWS V14.01,2013-03-15 09:30:00,
2013-03-15 05:35:00,29.8,21.9,30.16,WNW,298,0.0,0.0,72,0.00,,---,0.00,0.00,VWS V14.01,2013-03-15 09:35:00,
2013-03-15 05:40:00,29.6,22.0,30.16,WNW,298,0.0,0.0,73,0.00,,---,0.00,0.00,VWS V14.01,2013-03-15 09:40:00,
2013-03-15 05:45:00,29.4,21.8,30.16,WNW,298,0.0,0.0,73,0.00,,---,0.00,0.00,VWS V14.01,2013-03-15 09:45:00,
2013-03-15 05:50:00,29.3,21.7,30.16,WNW,298,0.0,0.0,73,0.00,,---,0.00,0.00,VWS V14.01,2013-03-15 09:50:00,
2013-03-15 05:55:00,29.1,21.9,30.16,WNW,298,0.0,0.0,74,0.00,,---,0.00,0.00,VWS V14.01,2013-03-15 09:55:00,
2013-03-15 06:00:00,29.0,21.8,30.16,WNW,298,0.0,0.0,74,0.00,,---,0.00,0.00,VWS V14.01,2013-03-15 10:00:00,
2013-03-15 06:05:00,28.9,21.7,30.17,WNW,298,0.0,0.0,74,0.00,,---,0.00,0.00,VWS V14.01,2013-03-15 10:05:00,
2013-03-15 06:10:00,28.8,21.6,30.16,WNW,298,0.0,0.0,74,0.00,,---,0.00,0.00,VWS V14.01,2013-03-15 10:10:00,
2013-03-15 06:15:00,28.6,21.4,30.16,WNW,298,0.0,0.0,74,0.00,,---,0.00,0.00,VWS V14.01,2013-03-15 10:15:00,
2013-03-15 06:20:00,28.5,21.3,30.16,WNW,298,0.0,0.0,74,0.00,,---,0.00,0.00,VWS V14.01,2013-03-15 10:20:00,
2013-03-15 06:25:00,28.4,21.2,30.16,WNW,298,0.0,0.0,74,0.00,,---,0.00,0.00,VWS V14.01,2013-03-15 10:25:00,
2013-03-15 06:30:00,28.2,21.0,30.16,WNW,298,0.0,0.0,74,0.00,,---,0.00,0.00,VWS V14.01,2013-03-15 10:30:00,
2013-03-15 06:35:00,28.1,21.2,30.16,WNW,298,0.0,0.0,75,0.00,,---,0.00,0.00,VWS V14.01,2013-03-15 10:35:00,
2013-03-15 06:40:00,28.0,21.1,30.16,WNW,298,0.0,0.0,75,0.00,,---,0.00,0.00,VWS V14.01,2013-03-15 10:40:00,
2013-03-15 06:45:00,27.9,21.0,30.16,WNW,298,0.0,0.0,75,0.00,,---,0.00,0.00,VWS V14.01,2013-03-15 10:45:00,
2013-03-15 06:50:00,27.8,21.2,30.16,WNW,298,0.0,0.0,76,0.00,,---,0.00,0.00,VWS V14.01,2013-03-15 10:50:00,
2013-03-15 06:55:00,27.7,21.4,30.16,WNW,298,0.0,0.0,77,0.00,,---,0.00,0.00,VWS V14.01,2013-03-15 10:55:00,
2013-03-15 07:00:00,27.6,21.4,30.16,WNW,298,0.0,0.0,77,0.00,,---,0.00,0.00,VWS V14.01,2013-03-15 11:00:00,
2013-03-15 07:05:00,27.5,21.2,30.16,WNW,298,0.0,0.0,77,0.00,,---,0.00,0.00,VWS V14.01,2013-03-15 11:05:00,
2013-03-15 07:10:00,27.4,21.5,30.16,WNW,298,0.0,0.0,78,0.00,,---,0.00,0.00,VWS V14.01,2013-03-15 11:10:00,
2013-03-15 07:15:00,27.3,21.4,30.16,WNW,298,0.0,0.0,78,0.00,,---,0.00,0.00,VWS V14.01,2013-03-15 11:15:00,
2013-03-15 07:20:00,27.2,21.6,30.16,WNW,298,0.0,0.0,79,0.00,,---,0.00,0.00,VWS V14.01,2013-03-15 11:20:00,
2013-03-15 07:25:00,27.1,21.5,30.16,WNW,298,0.0,0.0,79,0.00,,---,0.00,0.00,VWS V14.01,2013-03-15 11:25:00,
2013-03-15 07:30:00,27.0,21.4,30.16,WNW,298,0.0,0.0,79,0.00,,---,0.00,5.00,VWS V14.01,2013-03-15 11:30:00,
2013-03-15 07:35:00,26.9,21.3,30.17,WNW,298,0.0,0.0,79,0.00,,---,0.00,9.00,VWS V14.01,2013-03-15 11:35:00,
2013-03-15 07:40:00,26.8,21.2,30.17,WNW,298,0.0,0.0,79,0.00,,---,0.00,12.00,VWS V14.01,2013-03-15 11:40:00,
2013-03-15 07:45:00,26.7,21.1,30.17,WNW,298,0.0,0.0,79,0.00,,---,0.00,14.00,VWS V14.01,2013-03-15 11:45:00,
2013-03-15 07:50:00,26.6,21.3,30.16,WNW,298,0.0,0.0,80,0.00,,---,0.00,16.00,VWS V14.01,2013-03-15 11:50:00,
2013-03-15 07:55:00,26.5,21.2,30.16,WNW,298,0.0,0.0,80,0.00,,---,0.00,19.00,VWS V14.01,2013-03-15 11:55:00,
2013-03-15 08:00:00,26.5,21.5,30.16,WNW,298,0.0,0.0,81,0.00,,---,0.00,25.00,VWS V14.01,2013-03-15 12:00:00,
2013-03-15 08:05:00,26.5,21.8,30.16,WNW,298,0.0,0.0,82,0.00,,---,0.00,28.00,VWS V14.01,2013-03-15 12:05:00,
2013-03-15 08:10:00,26.6,22.4,30.16,WNW,298,0.0,0.0,84,0.00,,---,0.00,26.00,VWS V14.01,2013-03-15 12:10:00,
2013-03-15 08:15:00,26.7,22.5,30.17,WNW,298,0.0,0.0,84,0.00,,---,0.00,44.00,VWS V14.01,2013-03-15 12:15:00,
2013-03-15 08:20:00,26.8,22.9,30.17,WNW,298,0.0,1.0,85,0.00,,---,0.00,54.00,VWS V14.01,2013-03-15 12:20:00,
2013-03-15 08:25:00,27.3,23.7,30.17,WNW,298,0.0,1.0,86,0.00,,---,0.00,72.00,VWS V14.01,2013-03-15 12:25:00,
2013-03-15 08:30:00,27.6,24.0,30.17,WNW,298,0.0,0.0,86,0.00,,---,0.00,81.00,VWS V14.01,2013-03-15 12:30:00,
2013-03-15 08:35:00,28.1,24.5,30.17,WNW,298,0.0,1.0,86,0.00,,---,0.00,81.00,VWS V14.01,2013-03-15 12:35:00,
2013-03-15 08:40:00,28.6,25.2,30.18,WNW,298,0.0,1.0,87,0.00,,---,0.00,83.00,VWS V14.01,2013-03-15 12:40:00,
2013-03-15 08:45:00,29.1,25.7,30.18,WNW,298,0.0,1.0,87,0.00,,---,0.00,51.00,VWS V14.01,2013-03-15 12:45:00,
2013-03-15 08:50:00,29.7,26.3,30.17,WNW,298,0.0,1.0,87,0.00,,---,0.00,91.00,VWS V14.01,2013-03-15 12:50:00,
2013-03-15 08:55:00,30.3,26.6,30.17,WNW,298,0.0,1.0,86,0.00,,---,0.00,130.00,VWS V14.01,2013-03-15 12:55:00,
2013-03-15 09:00:00,31.1,27.4,30.17,WNW,298,0.0,0.0,86,0.00,,---,0.00,165.00,VWS V14.01,2013-03-15 13:00:00,
2013-03-15 09:04:00,32.0,28.3,30.17,WNW,298,0.0,1.0,86,0.00,,---,0.00,137.00,VWS V14.01,2013-03-15 13:04:00,
2013-03-15 09:09:00,32.8,28.8,30.17,WNW,298,0.0,1.0,85,0.00,,---,0.00,146.00,VWS V14.01,2013-03-15 13:09:00,
2013-03-15 09:14:00,33.6,28.4,30.17,WNW,298,0.0,1.0,81,0.00,,---,0.00,264.00,VWS V14.01,2013-03-15 13:14:00,
2013-03-15 09:19:00,34.6,28.5,30.18,WNW,298,0.0,1.0,78,0.00,,---,0.00,141.00,VWS V14.01,2013-03-15 13:19:00,
2013-03-15 09:24:00,35.9,26.7,30.18,NNW,328,0.0,4.0,69,0.00,,---,0.00,54.00,VWS V14.01,2013-03-15 13:24:00,
2013-03-15 09:29:00,37.1,26.4,30.17,West,271,1.0,1.0,65,0.00,,---,0.00,123.00,VWS V14.01,2013-03-15 13:29:00,
2013-03-15 09:34:00,38.4,26.1,30.17,SW,231,0.0,6.0,61,0.00,,---,0.00,169.00,VWS V14.01,2013-03-15 13:34:00,
2013-03-15 09:39:00,39.6,25.2,30.17,NW,321,0.0,6.0,56,0.00,,---,0.00,134.00,VWS V14.01,2013-03-15 13:39:00,
2013-03-15 09:44:00,40.8,25.0,30.17,WNW,299,2.0,6.0,53,0.00,,---,0.00,160.00,VWS V14.01,2013-03-15 13:44:00,
2013-03-15 09:49:00,42.4,24.1,30.17,NW,304,2.0,8.0,48,0.00,,---,0.00,128.00,VWS V14.01,2013-03-15 13:49:00,
2013-03-15 09:54:00,44.0,24.0,30.17,NNW,346,2.0,8.0,45,0.00,,---,0.00,276.00,VWS V14.01,2013-03-15 13:54:00,
2013-03-15 09:59:00,45.3,23.6,30.16,West,274,2.0,3.0,42,0.00,,---,0.00,439.00,VWS V14.01,2013-03-15 13:59:00,
2013-03-15 10:04:00,46.2,23.8,30.16,SSW,209,4.0,6.0,41,0.00,,---,0.00,455.00,VWS V14.01,2013-03-15 14:04:00,
2013-03-15 10:09:00,46.3,23.3,30.16,West,275,5.0,6.0,40,0.00,,---,0.00,334.00,VWS V14.01,2013-03-15 14:09:00,
2013-03-15 10:14:00,46.6,23.6,30.16,West,261,0.0,7.0,40,0.00,,---,0.00,243.00,VWS V14.01,2013-03-15 14:14:00,
2013-03-15 10:19:00,47.0,23.3,30.16,NW,312,4.0,8.0,39,0.00,,---,0.00,346.00,VWS V14.01,2013-03-15 14:19:00,
2013-03-15 10:24:00,47.5,23.8,30.15,WSW,250,1.0,8.0,39,0.00,,---,0.00,469.00,VWS V14.01,2013-03-15 14:24:00,
2013-03-15 10:29:00,47.8,24.1,30.15,WSW,241,0.0,2.0,39,0.00,,---,0.00,137.00,VWS V14.01,2013-03-15 14:29:00,
2013-03-15 10:34:00,48.0,23.6,30.15,West,261,1.0,8.0,38,0.00,,---,0.00,221.00,VWS V14.01,2013-03-15 14:34:00,
2013-03-15 10:39:00,48.2,23.2,30.15,SW,236,1.0,8.0,37,0.00,,---,0.00,424.00,VWS V14.01,2013-03-15 14:39:00,
2013-03-15 10:44:00,48.4,24.0,30.15,SSW,211,5.0,8.0,38,0.00,,---,0.00,429.00,VWS V14.01,2013-03-15 14:44:00,
2013-03-15 10:49:00,48.5,23.4,30.15,WSW,255,2.0,8.0,37,0.00,,---,0.00,376.00,VWS V14.01,2013-03-15 14:49:00,
2013-03-15 10:54:00,48.9,23.8,30.15,WSW,241,0.0,8.0,37,0.00,,---,0.00,269.00,VWS V14.01,2013-03-15 14:54:00,
2013-03-15 10:59:00,49.1,23.3,30.15,West,269,7.0,7.0,36,0.00,,---,0.00,192.00,VWS V14.01,2013-03-15 14:59:00,
2013-03-15 11:04:00,49.8,25.2,30.14,NNE,30,2.0,7.0,38,0.00,,---,0.00,508.00,VWS V14.01,2013-03-15 15:04:00,
2013-03-15 11:09:00,50.6,24.0,30.14,NE,46,2.0,7.0,35,0.00,,---,0.00,626.00,VWS V14.01,2013-03-15 15:09:00,
2013-03-15 11:14:00,50.6,24.0,30.14,NNW,345,2.0,9.0,35,0.00,,---,0.00,557.00,VWS V14.01,2013-03-15 15:14:00,
2013-03-15 11:19:00,50.6,25.3,30.13,NW,310,0.0,9.0,37,0.00,,---,0.00,283.00,VWS V14.01,2013-03-15 15:19:00,
2013-03-15 11:24:00,51.5,25.5,30.13,WSW,251,1.0,9.0,36,0.00,,---,0.00,374.00,VWS V14.01,2013-03-15 15:24:00,
2013-03-15 11:29:00,52.2,26.1,30.12,WNW,289,5.0,5.0,36,0.00,,---,0.00,497.00,VWS V14.01,2013-03-15 15:29:00,
2013-03-15 11:34:00,52.0,25.2,30.12,WSW,256,7.0,11.0,35,0.00,,---,0.00,387.00,VWS V14.01,2013-03-15 15:34:00,
2013-03-15 11:39:00,52.0,25.9,30.11,SE,143,4.0,11.0,36,0.00,,---,0.00,329.00,VWS V14.01,2013-03-15 15:39:00,
2013-03-15 11:44:00,52.7,26.5,30.11,SSW,193,0.0,11.0,36,0.00,,---,0.00,192.00,VWS V14.01,2013-03-15 15:44:00,
2013-03-15 11:49:00,53.2,27.0,30.10,SW,215,0.0,11.0,36,0.00,,---,0.00,413.00,VWS V14.01,2013-03-15 15:49:00,
2013-03-15 11:54:00,53.6,28.0,30.10,SE,134,2.0,11.0,37,0.00,,---,0.00,359.00,VWS V14.01,2013-03-15 15:54:00,
2013-03-15 11:59:00,54.3,28.6,30.10,WSW,246,2.0,2.0,37,0.00,,---,0.00,227.00,VWS V14.01,2013-03-15 15:59:00,
2013-03-15 12:04:00,54.0,29.0,30.10,WSW,255,3.0,7.0,38,0.00,,---,0.00,703.00,VWS V14.01,2013-03-15 16:04:00,
2013-03-15 12:09:00,54.6,28.9,30.10,SSW,213,5.0,8.0,37,0.00,,---,0.00,735.00,VWS V14.01,2013-03-15 16:09:00,
2013-03-15 12:14:00,54.3,28.6,30.09,ESE,115,3.0,11.0,37,0.00,,---,0.00,744.00,VWS V14.01,2013-03-15 16:14:00,
2013-03-15 12:19:00,54.7,29.6,30.09,WSW,256,1.0,11.0,38,0.00,,---,0.00,745.00,VWS V14.01,2013-03-15 16:19:00,
2013-03-15 12:24:00,54.9,28.5,30.08,WSW,241,5.0,11.0,36,0.00,,---,0.00,752.00,VWS V14.01,2013-03-15 16:24:00,
2013-03-15 12:29:00,55.4,29.6,30.08,SW,219,6.0,7.0,37,0.00,,---,0.00,729.00,VWS V14.01,2013-03-15 16:29:00,
2013-03-15 12:34:00,55.5,29.7,30.08,WSW,238,1.0,12.0,37,0.00,,---,0.00,192.00,VWS V14.01,2013-03-15 16:34:00,
2013-03-15 12:39:00,55.9,30.0,30.08,West,262,5.0,12.0,37,0.00,,---,0.00,322.00,VWS V14.01,2013-03-15 16:39:00,
2013-03-15 12:44:00,56.3,30.4,30.08,West,260,8.0,12.0,37,0.00,,---,0.00,227.00,VWS V14.01,2013-03-15 16:44:00,
2013-03-15 12:49:00,56.5,30.6,30.07,WSW,257,4.0,12.0,37,0.00,,---,0.00,243.00,VWS V14.01,2013-03-15 16:49:00,
2013-03-15 12:54:00,56.7,30.1,30.07,West,277,5.0,12.0,36,0.00,,---,0.00,258.00,VWS V14.01,2013-03-15 16:54:00,
2013-03-15 12:59:00,56.7,31.4,30.07,SW,235,6.0,12.0,38,0.00,,---,0.00,294.00,VWS V14.01,2013-03-15 16:59:00,
2013-03-15 13:04:00,57.1,31.1,30.07,WSW,246,2.0,7.0,37,0.00,,---,0.00,218.00,VWS V14.01,2013-03-15 17:04:00,
2013-03-15 13:09:00,57.7,31.6,30.07,ESE,121,4.0,7.0,37,0.00,,---,0.00,271.00,VWS V14.01,2013-03-15 17:09:00,
2013-03-15 13:14:00,58.2,31.4,30.06,South,188,1.0,11.0,36,0.00,,---,0.00,288.00,VWS V14.01,2013-03-15 17:14:00,
2013-03-15 13:19:00,58.0,31.2,30.06,West,269,5.0,11.0,36,0.00,,---,0.00,234.00,VWS V14.01,2013-03-15 17:19:00,
2013-03-15 13:24:00,58.0,31.2,30.06,West,275,6.0,11.0,36,0.00,,---,0.00,420.00,VWS V14.01,2013-03-15 17:24:00,
2013-03-15 13:29:00,58.5,32.3,30.05,South,186,1.0,1.0,37,0.00,,---,0.00,510.00,VWS V14.01,2013-03-15 17:29:00,
2013-03-15 13:34:00,59.1,31.5,30.05,WNW,288,0.0,9.0,35,0.00,,---,0.00,313.00,VWS V14.01,2013-03-15 17:34:00,
2013-03-15 13:39:00,59.5,32.5,30.05,West,264,3.0,9.0,36,0.00,,---,0.00,403.00,VWS V14.01,2013-03-15 17:39:00,
2013-03-15 13:44:00,59.5,31.1,30.04,SW,232,7.0,9.0,34,0.00,,---,0.00,763.00,VWS V14.01,2013-03-15 17:44:00,
2013-03-15 13:49:00,59.7,32.0,30.04,West,279,1.0,9.0,35,0.00,,---,0.00,749.00,VWS V14.01,2013-03-15 17:49:00,
2013-03-15 13:54:00,60.6,32.8,30.04,West,265,8.0,9.0,35,0.00,,---,0.00,707.00,VWS V14.01,2013-03-15 17:54:00,
2013-03-15 13:59:00,60.3,31.8,30.03,West,265,8.0,9.0,34,0.00,,---,0.00,687.00,VWS V14.01,2013-03-15 17:59:00,
2013-03-15 14:04:00,60.1,32.4,30.03,SW,222,8.0,9.0,35,0.00,,---,0.00,680.00,VWS V14.01,2013-03-15 18:04:00,
2013-03-15 14:09:00,60.4,33.3,30.02,South,184,6.0,15.0,36,0.00,,---,0.00,700.00,VWS V14.01,2013-03-15 18:09:00,
2013-03-15 14:14:00,60.5,33.4,30.02,SW,227,6.0,15.0,36,0.00,,---,0.00,585.00,VWS V14.01,2013-03-15 18:14:00,
2013-03-15 14:19:00,60.8,33.0,30.02,WSW,244,11.0,15.0,35,0.00,,---,0.00,693.00,VWS V14.01,2013-03-15 18:19:00,
2013-03-15 14:24:00,61.0,34.6,30.01,WSW,242,0.0,15.0,37,0.00,,---,0.00,684.00,VWS V14.01,2013-03-15 18:24:00,
2013-03-15 14:29:00,61.3,34.1,30.00,West,279,7.0,15.0,36,0.00,,---,0.00,726.00,VWS V14.01,2013-03-15 18:29:00,
2013-03-15 14:34:00,61.1,32.5,30.00,SW,236,6.0,12.0,34,0.00,,---,0.00,710.00,VWS V14.01,2013-03-15 18:34:00,
2013-03-15 14:39:00,60.9,33.8,29.99,WSW,245,2.0,12.0,36,0.00,,---,0.00,645.00,VWS V14.01,2013-03-15 18:39:00,
2013-03-15 14:44:00,61.9,34.7,29.99,NNW,344,1.0,12.0,36,0.00,,---,0.00,673.00,VWS V14.01,2013-03-15 18:44:00,
2013-03-15 14:49:00,61.5,32.9,29.98,SW,229,1.0,12.0,34,0.00,,---,0.00,629.00,VWS V14.01,2013-03-15 18:49:00,
2013-03-15 14:54:00,62.0,33.3,29.98,East,88,0.0,12.0,34,0.00,,---,0.00,621.00,VWS V14.01,2013-03-15 18:54:00,
2013-03-15 14:59:00,62.0,33.3,29.98,SSW,201,4.0,12.0,34,0.00,,---,0.00,652.00,VWS V14.01,2013-03-15 18:59:00,
2013-03-15 15:04:00,62.4,34.4,29.97,WNW,293,2.0,9.0,35,0.00,,---,0.00,666.00,VWS V14.01,2013-03-15 19:04:00,
2013-03-15 15:09:00,62.7,34.7,29.96,NNW,330,2.0,10.0,35,0.00,,---,0.00,643.00,VWS V14.01,2013-03-15 19:09:00,
2013-03-15 15:14:00,63.0,34.9,29.96,WSW,257,0.0,10.0,35,0.00,,---,0.00,693.00,VWS V14.01,2013-03-15 19:14:00,
2013-03-15 15:19:00,63.1,33.6,29.96,North,360,2.0,10.0,33,0.00,,---,0.00,599.00,VWS V14.01,2013-03-15 19:19:00,
2013-03-15 15:24:00,63.1,35.0,29.95,West,277,9.0,10.0,35,0.00,,---,0.00,606.00,VWS V14.01,2013-03-15 19:24:00,
2013-03-15 15:29:00,62.8,33.3,29.95,SW,219,4.0,11.0,33,0.00,,---,0.00,362.00,VWS V14.01,2013-03-15 19:29:00,
2013-03-15 15:34:00,62.3,33.6,29.95,WSW,244,5.0,9.0,34,0.00,,---,0.00,462.00,VWS V14.01,2013-03-15 19:34:00,
2013-03-15 15:39:00,62.0,32.6,29.95,South,184,2.0,10.0,33,0.00,,---,0.00,566.00,VWS V14.01,2013-03-15 19:39:00,
2013-03-15 15:44:00,62.6,33.1,29.94,West,275,8.0,10.0,33,0.00,,---,0.00,559.00,VWS V14.01,2013-03-15 19:44:00,
2013-03-15 15:49:00,63.5,35.4,29.94,South,186,0.0,10.0,35,0.00,,---,0.00,517.00,VWS V14.01,2013-03-15 19:49:00,
2013-03-15 15:54:00,63.5,34.7,29.95,West,261,7.0,10.0,34,0.00,,---,0.00,513.00,VWS V14.01,2013-03-15 19:54:00,
2013-03-15 15:59:00,63.2,34.4,29.94,NE,43,3.0,12.0,34,0.00,,---,0.00,499.00,VWS V14.01,2013-03-15 19:59:00,
2013-03-15 16:04:00,63.2,33.6,29.94,WSW,257,2.0,12.0,33,0.00,,---,0.00,462.00,VWS V14.01,2013-03-15 20:04:00,
2013-03-15 16:09:00,63.1,34.3,29.93,West,259,5.0,12.0,34,0.00,,---,0.00,425.00,VWS V14.01,2013-03-15 20:09:00,
2013-03-15 16:14:00,63.3,35.2,29.93,WSW,237,4.0,12.0,35,0.00,,---,0.00,394.00,VWS V14.01,2013-03-15 20:14:00,
2013-03-15 16:19:00,63.6,35.5,29.93,WSW,252,6.0,12.0,35,0.00,,---,0.00,410.00,VWS V14.01,2013-03-15 20:19:00,
2013-03-15 16:24:00,63.7,34.8,29.93,West,263,5.0,12.0,34,0.00,,---,0.00,371.00,VWS V14.01,2013-03-15 20:24:00,
2013-03-15 16:29:00,63.5,34.7,29.92,West,267,5.0,12.0,34,0.00,,---,0.00,376.00,VWS V14.01,2013-03-15 20:29:00,
2013-03-15 16:34:00,63.4,35.3,29.92,SW,229,2.0,16.0,35,0.00,,---,0.00,381.00,VWS V14.01,2013-03-15 20:34:00,
2013-03-15 16:39:00,63.5,34.7,29.92,West,267,6.0,16.0,34,0.00,,---,0.00,316.00,VWS V14.01,2013-03-15 20:39:00,
2013-03-15 16:44:00,63.4,34.6,29.92,West,265,11.0,16.0,34,0.00,,---,0.00,320.00,VWS V14.01,2013-03-15 20:44:00,
2013-03-15 16:49:00,63.4,34.6,29.92,WSW,246,2.0,16.0,34,0.00,,---,0.00,422.00,VWS V14.01,2013-03-15 20:49:00,
2013-03-15 16:54:00,63.8,34.9,29.92,SW,223,3.0,16.0,34,0.00,,---,0.00,431.00,VWS V14.01,2013-03-15 20:54:00,
2013-03-15 16:59:00,63.9,35.0,29.91,WSW,252,9.0,16.0,34,0.00,,---,0.00,380.00,VWS V14.01,2013-03-15 20:59:00,
2013-03-15 17:04:00,63.8,34.9,29.92,WSW,238,5.0,9.0,34,0.00,,---,0.00,255.00,VWS V14.01,2013-03-15 21:04:00,
2013-03-15 17:09:00,63.7,34.8,29.91,SW,222,4.0,14.0,34,0.00,,---,0.00,336.00,VWS V14.01,2013-03-15 21:09:00,
2013-03-15 17:14:00,63.5,34.7,29.91,South,171,3.0,14.0,34,0.00,,---,0.00,211.00,VWS V14.01,2013-03-15 21:14:00,
2013-03-15 17:19:00,63.2,35.1,29.91,WSW,242,3.0,14.0,35,0.00,,---,0.00,181.00,VWS V14.01,2013-03-15 21:19:00,
2013-03-15 17:24:00,62.7,34.0,29.91,SW,227,4.0,14.0,34,0.00,,---,0.00,200.00,VWS V14.01,2013-03-15 21:24:00,
2013-03-15 17:29:00,62.3,35.0,29.91,WSW,247,0.0,14.0,36,0.00,,---,0.00,190.00,VWS V14.01,2013-03-15 21:29:00,
2013-03-15 17:34:00,62.3,34.3,29.91,East,101,0.0,7.0,35,0.00,,---,0.00,237.00,VWS V14.01,2013-03-15 21:34:00,
2013-03-15 17:39:00,62.3,35.0,29.91,West,265,0.0,8.0,36,0.00,,---,0.00,229.00,VWS V14.01,2013-03-15 21:39:00,
2013-03-15 17:44:00,62.3,35.0,29.91,WSW,241,5.0,8.0,36,0.00,,---,0.00,221.00,VWS V14.01,2013-03-15 21:44:00,
2013-03-15 17:49:00,62.3,34.3,29.91,SW,228,1.0,11.0,35,0.00,,---,0.00,132.00,VWS V14.01,2013-03-15 21:49:00,
2013-03-15 17:54:00,62.1,34.8,29.91,WSW,248,4.0,11.0,36,0.00,,---,0.00,232.00,VWS V14.01,2013-03-15 21:54:00,
2013-03-15 17:59:00,62.1,35.5,29.91,SSW,207,3.0,11.0,37,0.00,,---,0.00,188.00,VWS V14.01,2013-03-15 21:59:00,
2013-03-15 18:04:00,62.1,34.8,29.91,South,178,1.0,11.0,36,0.00,,---,0.00,171.00,VWS V14.01,2013-03-15 22:04:00,
2013-03-15 18:09:00,62.1,35.5,29.91,East,101,3.0,11.0,37,0.00,,---,0.00,156.00,VWS V14.01,2013-03-15 22:09:00,
2013-03-15 18:14:00,62.0,34.8,29.91,WSW,248,5.0,11.0,36,0.00,,---,0.00,137.00,VWS V14.01,2013-03-15 22:14:00,
2013-03-15 18:19:00,61.9,34.7,29.91,WSW,239,5.0,11.0,36,0.00,,---,0.00,121.00,VWS V14.01,2013-03-15 22:19:00,
2013-03-15 18:24:00,61.7,35.9,29.91,SSW,206,1.0,11.0,38,0.00,,---,0.00,118.00,VWS V14.01,2013-03-15 22:24:00,
2013-03-15 18:29:00,61.7,35.9,29.91,West,276,0.0,0.0,38,0.00,,---,0.00,76.00,VWS V14.01,2013-03-15 22:29:00,
2013-03-15 18:34:00,61.5,35.7,29.90,WNW,298,4.0,4.0,38,0.00,,---,0.00,84.00,VWS V14.01,2013-03-15 22:34:00,
2013-03-15 18:39:00,61.4,36.2,29.90,SW,224,6.0,7.0,39,0.00,,---,0.00,63.00,VWS V14.01,2013-03-15 22:39:00,
2013-03-15 18:44:00,61.2,35.4,29.90,SSW,210,0.0,7.0,38,0.00,,---,0.00,53.00,VWS V14.01,2013-03-15 22:44:00,
2013-03-15 18:49:00,61.0,35.9,29.90,West,259,0.0,7.0,39,0.00,,---,0.00,46.00,VWS V14.01,2013-03-15 22:49:00,
2013-03-15 18:54:00,60.7,35.6,29.90,SW,217,0.0,8.0,39,0.00,,---,0.00,33.00,VWS V14.01,2013-03-15 22:54:00,
2013-03-15 18:59:00,60.5,35.4,29.89,East,88,1.0,1.0,39,0.00,,---,0.00,28.00,VWS V14.01,2013-03-15 22:59:00,
2013-03-15 19:04:00,60.3,35.3,29.89,SW,216,0.0,10.0,39,0.00,,---,0.00,21.00,VWS V14.01,2013-03-15 23:04:00,
2013-03-15 19:09:00,60.1,35.7,29.90,WSW,244,6.0,10.0,40,0.00,,---,0.00,14.00,VWS V14.01,2013-03-15 23:09:00,
2013-03-15 19:14:00,59.9,35.5,29.90,WSW,242,4.0,10.0,40,0.00,,---,0.00,9.00,VWS V14.01,2013-03-15 23:14:00,
2013-03-15 19:19:00,59.8,36.1,29.90,West,277,0.0,10.0,41,0.00,,---,0.00,5.00,VWS V14.01,2013-03-15 23:19:00,
2013-03-15 19:24:00,59.5,35.2,29.90,SSW,213,0.0,10.0,40,0.00,,---,0.00,0.00,VWS V14.01,2013-03-15 23:24:00,
2013-03-15 19:29:00,59.3,35.0,29.90,WSW,244,1.0,2.0,40,0.00,,---,0.00,0.00,VWS V14.01,2013-03-15 23:29:00,
2013-03-15 19:34:00,59.0,35.3,29.90,SSW,193,2.0,5.0,41,0.00,,---,0.00,0.00,VWS V14.01,2013-03-15 23:34:00,
2013-03-15 19:39:00,58.8,35.2,29.90,WSW,254,5.0,5.0,41,0.00,,---,0.00,0.00,VWS V14.01,2013-03-15 23:39:00,
2013-03-15 19:44:00,58.6,35.0,29.90,SW,232,1.0,5.0,41,0.00,,---,0.00,0.00,VWS V14.01,2013-03-15 23:44:00,
2013-03-15 19:49:00,58.4,35.4,29.90,West,259,0.0,6.0,42,0.00,,---,0.00,0.00,VWS V14.01,2013-03-15 23:49:00,
2013-03-15 19:54:00,58.1,35.2,29.90,West,259,0.0,6.0,42,0.00,,---,0.00,0.00,VWS V14.01,2013-03-15 23:54:00,
2013-03-15 19:59:00,57.9,35.0,29.90,West,259,0.0,6.0,42,0.00,,---,0.00,0.00,VWS V14.01,2013-03-15 23:59:00,
2013-03-15 20:04:00,57.7,35.4,29.90,WSW,243,1.0,2.0,43,0.00,,---,0.00,0.00,VWS V14.01,2013-03-16 00:04:00,
2013-03-15 20:09:00,57.5,35.2,29.90,SW,232,1.0,2.0,43,0.00,,---,0.00,0.00,VWS V14.01,2013-03-16 00:09:00,
2013-03-15 20:14:00,57.2,35.5,29.90,SW,232,0.0,2.0,44,0.00,,---,0.00,0.00,VWS V14.01,2013-03-16 00:14:00,
2013-03-15 20:19:00,57.0,35.3,29.90,SW,232,1.0,2.0,44,0.00,,---,0.00,0.00,VWS V14.01,2013-03-16 00:19:00,
2013-03-15 20:24:00,56.8,35.7,29.90,SW,232,0.0,2.0,45,0.00,,---,0.00,0.00,VWS V14.01,2013-03-16 00:24:00,
2013-03-15 20:29:00,56.5,35.4,29.90,SW,232,0.0,0.0,45,0.00,,---,0.00,0.00,VWS V14.01,2013-03-16 00:29:00,
2013-03-15 20:34:00,56.2,35.7,29.90,SW,232,0.0,1.0,46,0.00,,---,0.00,0.00,VWS V14.01,2013-03-16 00:34:00,
2013-03-15 20:39:00,55.9,35.4,29.90,SW,232,0.0,1.0,46,0.00,,---,0.00,0.00,VWS V14.01,2013-03-16 00:39:00,
2013-03-15 20:44:00,55.5,35.6,29.90,SW,232,0.0,1.0,47,0.00,,---,0.00,0.00,VWS V14.01,2013-03-16 00:44:00,
2013-03-15 20:49:00,55.0,36.2,29.90,SW,232,0.0,1.0,49,0.00,,---,0.00,0.00,VWS V14.01,2013-03-16 00:49:00,
2013-03-15 20:54:00,54.4,36.2,29.90,SW,232,0.0,1.0,50,0.00,,---,0.00,0.00,VWS V14.01,2013-03-16 00:54:00,
2013-03-15 20:59:00,53.9,36.2,29.90,SW,232,0.0,1.0,51,0.00,,---,0.00,0.00,VWS V14.01,2013-03-16 00:59:00,
2013-03-15 21:04:00,53.3,36.6,29.90,SW,232,0.0,1.0,53,0.00,,---,0.00,0.00,VWS V14.01,2013-03-16 01:04:00,
2013-03-15 21:09:00,52.7,36.1,29.90,SW,232,0.0,1.0,53,0.00,,---,0.00,0.00,VWS V14.01,2013-03-16 01:09:00,
2013-03-15 21:14:00,52.2,36.1,29.90,SW,232,1.0,1.0,54,0.00,,---,0.00,0.00,VWS V14.01,2013-03-16 01:14:00,
2013-03-15 21:19:00,51.6,36.4,29.90,SW,232,0.0,2.0,56,0.00,,---,0.00,0.00,VWS V14.01,2013-03-16 01:19:00,
2013-03-15 21:24:00,51.1,36.4,29.90,SW,232,0.0,2.0,57,0.00,,---,0.00,0.00,VWS V14.01,2013-03-16 01:24:00,
2013-03-15 21:29:00,50.5,36.3,29.90,SW,232,0.0,2.0,58,0.00,,---,0.00,0.00,VWS V14.01,2013-03-16 01:29:00,
2013-03-15 21:34:00,50.0,36.2,29.90,SW,232,0.0,1.0,59,0.00,,---,0.00,0.00,VWS V14.01,2013-03-16 01:34:00,
2013-03-15 21:39:00,49.5,36.2,29.90,SW,232,0.0,1.0,60,0.00,,---,0.00,0.00,VWS V14.01,2013-03-16 01:39:00,
2013-03-15 21:44:00,49.0,36.6,29.90,SW,232,0.0,1.0,62,0.00,,---,0.00,0.00,VWS V14.01,2013-03-16 01:44:00,
2013-03-15 21:49:00,48.5,36.5,29.90,SW,232,0.0,1.0,63,0.00,,---,0.00,0.00,VWS V14.01,2013-03-16 01:49:00,
2013-03-15 21:54:00,48.1,36.5,29.90,SW,232,0.0,1.0,64,0.00,,---,0.00,0.00,VWS V14.01,2013-03-16 01:54:00,
2013-03-15 21:59:00,47.8,36.6,29.90,SW,232,0.0,1.0,65,0.00,,---,0.00,0.00,VWS V14.01,2013-03-16 01:59:00,
2013-03-15 22:04:00,47.3,36.5,29.90,SW,232,0.0,1.0,66,0.00,,---,0.00,0.00,VWS V14.01,2013-03-16 02:04:00,
2013-03-15 22:09:00,46.9,36.5,29.90,SW,232,0.0,1.0,67,0.00,,---,0.00,0.00,VWS V14.01,2013-03-16 02:09:00,
2013-03-15 22:14:00,46.5,36.5,29.90,SW,232,0.0,1.0,68,0.00,,---,0.00,0.00,VWS V14.01,2013-03-16 02:14:00,
2013-03-15 22:19:00,46.2,36.6,29.90,SW,232,0.0,1.0,69,0.00,,---,0.00,0.00,VWS V14.01,2013-03-16 02:19:00,
2013-03-15 22:24:00,45.9,36.3,29.90,SW,232,0.0,1.0,69,0.00,,---,0.00,0.00,VWS V14.01,2013-03-16 02:24:00,
2013-03-15 22:29:00,45.6,36.4,29.90,SW,232,0.0,1.0,70,0.00,,---,0.00,0.00,VWS V14.01,2013-03-16 02:29:00,
2013-03-15 22:34:00,45.4,36.6,29.90,SW,232,0.0,1.0,71,0.00,,---,0.00,0.00,VWS V14.01,2013-03-16 02:34:00,
2013-03-15 22:39:00,45.1,36.3,29.90,SW,232,1.0,1.0,71,0.00,,---,0.00,0.00,VWS V14.01,2013-03-16 02:39:00,
2013-03-15 22:44:00,45.0,36.5,29.90,SW,232,0.0,1.0,72,0.00,,---,0.00,0.00,VWS V14.01,2013-03-16 02:44:00,
2013-03-15 22:49:00,44.8,36.3,29.90,SW,232,0.0,1.0,72,0.00,,---,0.00,0.00,VWS V14.01,2013-03-16 02:49:00,
2013-03-15 22:54:00,44.6,36.2,29.89,SW,232,1.0,1.0,72,0.00,,---,0.00,0.00,VWS V14.01,2013-03-16 02:54:00,
2013-03-15 22:59:00,44.4,36.3,29.90,SW,232,1.0,2.0,73,0.00,,---,0.00,0.00,VWS V14.01,2013-03-16 02:59:00,
2013-03-15 23:04:00,44.2,36.5,29.89,SW,232,0.0,1.0,74,0.00,,---,0.00,0.00,VWS V14.01,2013-03-16 03:04:00,
2013-03-15 23:09:00,44.0,35.9,29.89,SW,232,0.0,1.0,73,0.00,,---,0.00,0.00,VWS V14.01,2013-03-16 03:09:00,
2013-03-15 23:14:00,43.9,36.2,29.89,SW,232,0.0,1.0,74,0.00,,---,0.00,0.00,VWS V14.01,2013-03-16 03:14:00,
2013-03-15 23:19:00,43.7,36.0,29.89,SW,232,0.0,1.0,74,0.00,,---,0.00,0.00,VWS V14.01,2013-03-16 03:19:00,
2013-03-15 23:24:00,43.5,36.1,29.89,SW,232,0.0,1.0,75,0.00,,---,0.00,0.00,VWS V14.01,2013-03-16 03:24:00,
2013-03-15 23:29:00,43.4,36.0,29.89,SW,232,1.0,1.0,75,0.00,,---,0.00,0.00,VWS V14.01,2013-03-16 03:29:00,
2013-03-15 23:34:00,43.2,36.2,29.89,SW,232,0.0,2.0,76,0.00,,---,0.00,0.00,VWS V14.01,2013-03-16 03:34:00,
2013-03-15 23:39:00,43.1,36.1,29.89,SW,232,0.0,2.0,76,0.00,,---,0.00,0.00,VWS V14.01,2013-03-16 03:39:00,
2013-03-15 23:44:00,43.1,36.1,29.89,SW,232,0.0,2.0,76,0.00,,---,0.00,0.00,VWS V14.01,2013-03-16 03:44:00,
2013-03-15 23:49:00,43.0,36.0,29.88,SW,232,0.0,2.0,76,0.00,,---,0.00,0.00,VWS V14.01,2013-03-16 03:49:00,
2013-03-15 23:54:00,43.0,36.3,29.89,SW,232,0.0,2.0,77,0.00,,---,0.00,0.00,VWS V14.01,2013-03-16 03:54:00,
2013-03-15 23:59:00,42.9,36.2,29.88,SW,232,0.0,2.0,77,0.00,,---,0.00,0.00,VWS V14.01,2013-03-16 03:59:00,